When you browse on this site, cookies collect data to enhance your experience and personalize the content and advertising you see.
Visit our Privacy Policy to learn more. By continuing to use the site, you agree to this use of cookies and data.
  • In France
  • List of Countries
  • For 7 days
  • Water Temperature
  • Satellite Maps
  • Weather Map
  • Weather Widgets
  • user-avatar
    Login

    Hourly Weather Stepanakert

    Today, 20 April, Saturday

    Time Temperature Precipitation Wind Pressure Humidity
    00:00 +3°C° 0.3 mm 2 mps 689 mmHg 96%
    01:00 +2°C° 0.8 mm 2 mps 689 mmHg 95%
    02:00 +2°C° 0.8 mm 2 mps 688 mmHg 95%
    03:00 +2°C° 0.8 mm 2 mps 688 mmHg 95%
    04:00 +2°C° 1.3 mm 2 mps 688 mmHg 95%
    05:00 +2°C° 1.3 mm 2 mps 689 mmHg 95%
    06:00 +3°C° 1.3 mm 1 mps 689 mmHg 95%
    07:00 +2°C° 0.8 mm 2 mps 689 mmHg 93%
    08:00 +2°C° 0.8 mm 2 mps 690 mmHg 92%
    09:00 +3°C° 0.8 mm 2 mps 690 mmHg 90%
    10:00 +3°C° 0.4 mm 2 mps 691 mmHg 89%
    11:00 +4°C° 0.4 mm 2 mps 691 mmHg 87%
    12:00 +5°C° 0.4 mm 2 mps 691 mmHg 86%
    13:00 +5°C° 0.1 mm 2 mps 691 mmHg 85%
    14:00 +5°C° 0.1 mm 2 mps 691 mmHg 85%
    15:00 +5°C° 0.1 mm 2 mps 691 mmHg 84%
    16:00 +5°C° 0 mm 2 mps 691 mmHg 86%
    17:00 +5°C° 0 mm 2 mps 691 mmHg 88%
    18:00 +4°C° 0 mm 2 mps 692 mmHg 89%
    19:00 +4°C° 0 mm 2 mps 692 mmHg 91%
    20:00 +4°C° 0 mm 1 mps 692 mmHg 93%
    21:00 +4°C° 0 mm 1 mps 693 mmHg 95%
    22:00 +4°C° 0 mm 1 mps 693 mmHg 95%
    23:00 +3°C° 0 mm 1 mps 693 mmHg 95%

    Tomorrow, 21 April, Sunday

    Time Temperature Precipitation Wind Pressure Humidity
    00:00 +2°C° 0 mm 0 mps 693 mmHg 95%
    01:00 +2°C° 0 mm 0 mps 693 mmHg 95%
    02:00 +2°C° 0 mm 0 mps 692 mmHg 95%
    03:00 +1°C° 0 mm 0 mps 692 mmHg 95%
    04:00 +2°C° 0 mm 0 mps 693 mmHg 94%
    05:00 +2°C° 0 mm 0 mps 693 mmHg 93%
    06:00 +2°C° 0 mm 0 mps 693 mmHg 92%
    07:00 +4°C° 0 mm 1 mps 693 mmHg 89%
    08:00 +4°C° 0 mm 2 mps 693 mmHg 87%
    09:00 +5°C° 0 mm 2 mps 693 mmHg 84%
    10:00 +5°C° 0.1 mm 2 mps 693 mmHg 84%
    11:00 +5°C° 0.1 mm 2 mps 692 mmHg 83%
    12:00 +4°C° 0.1 mm 3 mps 692 mmHg 83%
    13:00 +5°C° 0.1 mm 3 mps 692 mmHg 83%
    14:00 +5°C° 0.1 mm 3 mps 692 mmHg 82%
    15:00 +7°C° 0.1 mm 3 mps 691 mmHg 81%
    16:00 +6°C° 0.1 mm 2 mps 691 mmHg 84%
    17:00 +6°C° 0.1 mm 2 mps 691 mmHg 86%
    18:00 +5°C° 0.1 mm 2 mps 691 mmHg 88%
    19:00 +5°C° 0.2 mm 2 mps 692 mmHg 90%
    20:00 +6°C° 0.2 mm 1 mps 692 mmHg 92%
    21:00 +5°C° 0.2 mm 1 mps 693 mmHg 94%
    22:00 +5°C° 0.3 mm 1 mps 693 mmHg 94%
    23:00 +5°C° 0.3 mm 1 mps 693 mmHg 94%

    Day after tomorrow, 22 April, Monday

    Time Temperature Precipitation Wind Pressure Humidity
    00:00 +5°C° 0.3 mm 1 mps 693 mmHg 95%
    01:00 +4°C° 0.1 mm 1 mps 693 mmHg 94%
    02:00 +4°C° 0.1 mm 1 mps 693 mmHg 93%
    03:00 +4°C° 0.1 mm 1 mps 692 mmHg 93%
    04:00 +3°C° 0 mm 0 mps 692 mmHg 92%
    05:00 +3°C° 0 mm 0 mps 692 mmHg 91%
    06:00 +3°C° 0 mm 0 mps 692 mmHg 90%
    07:00 +5°C° 0.2 mm 1 mps 692 mmHg 88%
    08:00 +5°C° 0.2 mm 1 mps 692 mmHg 86%
    09:00 +5°C° 0.2 mm 2 mps 692 mmHg 83%
    10:00 +5°C° 0.4 mm 2 mps 692 mmHg 83%
    11:00 +6°C° 0.4 mm 2 mps 692 mmHg 82%
    12:00 +6°C° 0.4 mm 2 mps 691 mmHg 81%
    13:00 +6°C° 0.5 mm 2 mps 691 mmHg 82%
    14:00 +6°C° 0.5 mm 2 mps 691 mmHg 82%
    15:00 +6°C° 0.5 mm 2 mps 690 mmHg 83%
    16:00 +6°C° 1.2 mm 2 mps 691 mmHg 85%
    17:00 +5°C° 1.2 mm 2 mps 691 mmHg 88%
    18:00 +6°C° 1.2 mm 1 mps 691 mmHg 91%
    19:00 +6°C° 1.7 mm 1 mps 692 mmHg 92%
    20:00 +5°C° 1.7 mm 2 mps 692 mmHg 93%
    21:00 +4°C° 1.7 mm 2 mps 692 mmHg 94%
    22:00 +4°C° 1.5 mm 2 mps 693 mmHg 93%
    23:00 +5°C° 1.5 mm 1 mps 693 mmHg 92%

    23 April, Tuesday

    Time Temperature Precipitation Wind Pressure Humidity
    00:00 +4°C° 1.5 mm 1 mps 693 mmHg 91%
    01:00 +4°C° 1.3 mm 1 mps 693 mmHg 91%
    02:00 +4°C° 1.3 mm 1 mps 694 mmHg 90%
    03:00 +4°C° 1.3 mm 1 mps 694 mmHg 90%
    04:00 +4°C° 1 mm 1 mps 694 mmHg 89%
    05:00 +4°C° 1 mm 1 mps 695 mmHg 89%
    06:00 +4°C° 1 mm 1 mps 695 mmHg 89%
    07:00 +4°C° 0.6 mm 2 mps 696 mmHg 87%
    08:00 +4°C° 0.6 mm 2 mps 696 mmHg 86%
    09:00 +5°C° 0.6 mm 2 mps 696 mmHg 84%
    10:00 +5°C° 0.4 mm 2 mps 697 mmHg 83%
    11:00 +5°C° 0.4 mm 3 mps 697 mmHg 83%
    12:00 +5°C° 0.4 mm 3 mps 697 mmHg 82%
    13:00 +5°C° 0.2 mm 3 mps 697 mmHg 81%
    14:00 +7°C° 0.2 mm 3 mps 697 mmHg 81%
    15:00 +7°C° 0.2 mm 3 mps 697 mmHg 80%
    16:00 +5°C° 0.2 mm 3 mps 697 mmHg 81%
    17:00 +5°C° 0.2 mm 3 mps 697 mmHg 83%
    18:00 +5°C° 0.2 mm 2 mps 697 mmHg 84%
    19:00 +5°C° 0.1 mm 2 mps 698 mmHg 84%
    20:00 +4°C° 0.1 mm 2 mps 698 mmHg 84%
    21:00 +4°C° 0.1 mm 2 mps 699 mmHg 84%
    22:00 +3°C° 0.1 mm 2 mps 699 mmHg 82%
    23:00 +3°C° 0.1 mm 2 mps 699 mmHg 81%

    24 April, Wednesday

    Time Temperature Precipitation Wind Pressure Humidity
    00:00 +3°C° 0.1 mm 2 mps 699 mmHg 79%
    01:00 +3°C° 0 mm 2 mps 699 mmHg 77%
    02:00 +2°C° 0 mm 2 mps 699 mmHg 75%
    03:00 +2°C° 0 mm 2 mps 699 mmHg 73%
    04:00 +3°C° 0 mm 2 mps 699 mmHg 72%
    05:00 +3°C° 0 mm 2 mps 699 mmHg 72%
    06:00 +4°C° 0 mm 1 mps 700 mmHg 72%
    07:00 +6°C° 0 mm 1 mps 700 mmHg 71%
    08:00 +7°C° 0 mm 1 mps 700 mmHg 70%
    09:00 +9°C° 0 mm 1 mps 700 mmHg 69%
    10:00 +9°C° 0 mm 1 mps 700 mmHg 69%
    11:00 +9°C° 0 mm 2 mps 699 mmHg 68%
    12:00 +9°C° 0 mm 2 mps 699 mmHg 67%
    13:00 +9°C° 0 mm 2 mps 699 mmHg 67%
    14:00 +10°C° 0 mm 2 mps 698 mmHg 68%
    15:00 +10°C° 0 mm 2 mps 698 mmHg 68%
    16:00 +9°C° 0.1 mm 2 mps 698 mmHg 71%
    17:00 +9°C° 0.1 mm 2 mps 698 mmHg 75%
    18:00 +8°C° 0.1 mm 2 mps 698 mmHg 78%
    19:00 +8°C° 0.1 mm 1 mps 698 mmHg 80%
    20:00 +7°C° 0.1 mm 1 mps 699 mmHg 82%
    21:00 +6°C° 0.1 mm 1 mps 699 mmHg 84%
    22:00 +6°C° 0 mm 1 mps 699 mmHg 83%
    23:00 +5°C° 0 mm 1 mps 699 mmHg 82%

    25 April, Thursday

    Time Temperature Precipitation Wind Pressure Humidity
    00:00 +5°C° 0 mm 1 mps 699 mmHg 81%
    01:00 +5°C° 0 mm 1 mps 699 mmHg 80%
    02:00 +4°C° 0 mm 1 mps 699 mmHg 79%
    03:00 +4°C° 0 mm 1 mps 699 mmHg 78%
    04:00 +4°C° 0 mm 1 mps 699 mmHg 77%
    05:00 +5°C° 0 mm 1 mps 699 mmHg 76%
    06:00 +5°C° 0 mm 1 mps 700 mmHg 74%
    07:00 +6°C° 0 mm 1 mps 700 mmHg 73%
    08:00 +8°C° 0 mm 1 mps 700 mmHg 71%
    09:00 +8°C° 0 mm 2 mps 700 mmHg 69%
    10:00 +9°C° 0 mm 2 mps 700 mmHg 68%
    11:00 +10°C° 0 mm 2 mps 700 mmHg 67%
    12:00 +10°C° 0 mm 2 mps 699 mmHg 66%
    13:00 +10°C° 0 mm 2 mps 699 mmHg 65%
    14:00 +12°C° 0 mm 2 mps 699 mmHg 64%
    15:00 +12°C° 0 mm 2 mps 698 mmHg 63%
    16:00 +10°C° 0 mm 2 mps 698 mmHg 67%
    17:00 +9°C° 0 mm 2 mps 698 mmHg 72%
    18:00 +10°C° 0 mm 1 mps 698 mmHg 76%
    19:00 +9°C° 0 mm 1 mps 699 mmHg 78%
    20:00 +8°C° 0 mm 1 mps 699 mmHg 80%
    21:00 +7°C° 0 mm 1 mps 699 mmHg 82%
    22:00 +5°C° 0 mm 2 mps 699 mmHg 81%
    23:00 +5°C° 0 mm 2 mps 699 mmHg 80%
    Show more